Regional Weather Roundup
Issued by NWS

Home | Current Version | Previous Version | Graphics & Text | Print | Product List | Glossary On
Versions: 1 2 3 4 5 6 7 8 9 10 11 12 13 14 15 16 17 18 19 20 21 22 23 24 25 26 27 28 29 30 31 32 33 34 35 36 37 38 39 40 41 42 43 44 45 46 47 48 49 50
000
ASUS43 KMKX 301800
RWRWI

WISCONSIN REGIONAL WEATHER ROUNDUP
NATIONAL WEATHER SERVICE MILWAUKEE/SULLIVAN WI
100 PM CDT TUE SEP 30 2014

NOTE: "FAIR" INDICATES FEW OR NO CLOUDS BELOW 12,000 FEET WITH NO
SIGNIFICANT WEATHER AND/OR OBSTRUCTIONS TO VISIBILITY.

WIZ001-002-006>008-014>016-023>028-301900-
NORTHWEST WISCONSIN

CITY           SKY/WX    TMP DP  RH WIND       PRES   REMARKS
SUPERIOR ARPT  CLOUDY    48  42  81 E8        30.09F
ASHLAND        CLOUDY    49  41  74 VRB6      30.11F
6HR MIN TEMP:  41; 6HR MAX TEMP:  49;

HAYWARD        SUNNY     51  39  63 VRB5      30.07F
6HR MIN TEMP:  40; 6HR MAX TEMP:  52;

SIREN          PTSUNNY   47  39  74 E7        30.05F
CUMBERLAND     MOSUNNY   46  37  71 E8        30.06F
RICE LAKE      CLOUDY    47  40  75 NE8       30.08F
CHETEK         CLOUDY    46  40  80 NE5       30.07F
LADYSMITH      SUNNY     52  41  67 SE3       30.08F
EAU CLAIRE     NOT AVBL
MENOMONIE      PTSUNNY   48  40  72 E9        30.06F
NEW RICHMOND   MOSUNNY   49  39  69 E14       30.04F
OSCEOLA        MOSUNNY   51  42  71 E13       30.06F
$$

WIZ003>005-009-010-017-018-301900-
NORTH CENTRAL WISCONSIN

CITY           SKY/WX    TMP DP  RH WIND       PRES   REMARKS
MANITOWISH WTR CLOUDY    44  40  85 SE5       30.09F
ARBOR VITAE    PTSUNNY   46  39  79 CALM      30.08F
WOODRUFF       PTSUNNY   46  39  79 CALM      30.08F
RHINELANDER    CLOUDY    48  40  73 NE6       30.08F
6HR MIN TEMP:  37; 6HR MAX TEMP:  48;

EAGLE RIVER    CLOUDY    46  39  75 E3        30.08F
LAND O LAKES   CLOUDY    46  40  81 CALM      30.10S
PHILLIPS       SUNNY     50  41  69 CALM      30.07F
TOMAHAWK       MOSUNNY   48  39  70 CALM      30.09F
MEDFORD        MOSUNNY   50  41  72 E5        30.07F
MERRILL        SUNNY     51  41  69 E6        30.08F
$$

WIZ029-030-035-036-043>047-301900-
CENTRAL WISCONSIN

CITY           SKY/WX    TMP DP  RH WIND       PRES   REMARKS
WAUSAU         CLOUDY    49  40  71 VRB3      30.07F
6HR MIN TEMP:  39; 6HR MAX TEMP:  50;

MOSINEE        PTSUNNY   48  43  81 E3        30.09F
MARSHFIELD     CLOUDY    48  40  73 E5        30.08F
6HR MIN TEMP:  39; 6HR MAX TEMP:  50;

STEVENS POINT  CLOUDY    44  38  79 E7        30.10F
WAUPACA        CLOUDY    48  40  74 NE5       30.12R
WAUTOMA        NOT AVBL
WISC RAPIDS    CLOUDY    50  40  68 SE9       30.10F
6HR MIN TEMP:  41; 6HR MAX TEMP:  50;

CAMP DOUGLAS   NOT AVBL
$$

WIZ011>013-019>022-031-037>040-048>050-301900-
NORTHEAST WISCONSIN

CITY           SKY/WX    TMP DP  RH WIND       PRES   REMARKS
ANTIGO         CLOUDY    45  40  82 N3        30.09F
SHAWANO        CLOUDY    49  42  75 NE6       30.11S
OCONTO         CLOUDY    47  41  79 N7        30.09F
STURGEON BAY   NOT AVBL
GREEN BAY      CLOUDY    49  42  77 NE7       30.10S
6HR MIN TEMP:  43; 6HR MAX TEMP:  49;

MANITOWOC      NOT AVBL
APPLETON       CLOUDY    45  39  81 NE6       30.11R
CLINTONVILLE   CLOUDY    45  37  76 E3        30.11R
OSHKOSH        CLOUDY    48  41  76 N7        30.10S
6HR MIN TEMP:  43; 6HR MAX TEMP:  48;

$$

WIZ032>034-041-042-053>061-301900-
SOUTHWEST WISCONSIN

CITY           SKY/WX    TMP DP  RH WIND       PRES   REMARKS
LA CROSSE      CLOUDY    53  42  66 E6        30.07F
6HR MIN TEMP:  46; 6HR MAX TEMP:  53;

SPARTA         CLOUDY    46  39  76 SE5       30.09F
VIROQUA        PTSUNNY   51  42  70 E5        30.06S
BOSCOBEL       CLOUDY    53  43  68 VRB7      30.07F
6HR MIN TEMP:  47; 6HR MAX TEMP:  53;

PRAIRIE DU CHI CLOUDY    52  43  71 NE6       30.06S
PLATTEVILLE    PTSUNNY   52  44  73 E8        30.06F
$$

WIZ056-057-062-063-064-067-068-301900-
SOUTH CENTRAL WISCONSIN

CITY           SKY/WX    TMP DP  RH WIND       PRES   REMARKS
REEDSBURG      CLOUDY    46  40  82 NE6       30.08F
BARABOO/DELLS  CLOUDY    45  40  82 E7        30.09S
LONE ROCK      NOT AVBL
MINERAL POINT  CLOUDY    50  43  76 NE6       30.07S
MADISON        CLOUDY    48  41  76 NE8       30.08F
6HR MIN TEMP:  44; 6HR MAX TEMP:  48;

MIDDLETON      CLOUDY    48  41  78 NE7       30.08F
WATERTOWN      CLOUDY    47  43  85 NE6       30.07F
MONROE         CLOUDY    46  43  87 NE9       30.07S
JANESVILLE     CLOUDY    52  41  66 E8        30.07F
$$

WIZ051-052-058>065-066-070>072-301900-
SOUTHEAST WISCONSIN

CITY           SKY/WX    TMP DP  RH WIND       PRES   REMARKS
MILWAUKEE      PTSUNNY   54  45  71 N13       30.07F
6HR MIN TEMP:  46; 6HR MAX TEMP:  54;

WAUKESHA       CLOUDY    48  41  76 NE6       30.08F
MILWAUKEE/TIMM CLOUDY    52  41  66 N6        30.08F
RACINE         CLOUDY    52  46  80 N14       30.08F
6HR MIN TEMP:  45; 6HR MAX TEMP:  53;

BURLINGTON     CLOUDY    50  41  70 NE7       30.07F
KENOSHA        CLOUDY    54  45  71 N12G17    30.06F
6HR MIN TEMP:  45; 6HR MAX TEMP:  55;

FOND DU LAC    CLOUDY    48  41  76 NE6       30.10S
6HR MIN TEMP:  45; 6HR MAX TEMP:  48;

SHEBOYGAN      NOT AVBL
WEST BEND      CLOUDY    48  39  71 N5        30.08F
JUNEAU         CLOUDY    46  41  81 E8        30.10F
$$

LSZ147-162-301900-
LAKE SUPERIOR

STATION/POSITION TIME  TEMP    WIND        PRES    WAVE
                       AIR SEA DIR/SP/G            HT/PER
                 (UTC) (F)     (DEG/KT/KT) (MB)    (FT/S)
W MID LAKE BUOY  1650   45 50   80/ 10/ 14 1021.1F   2/ 5
DEVILS ISLAND    1700   45     100/ 13/ 15 1021.2F
SAXON HARBOR     1740   47      40/  8/ 11 1019.6F
$$

LMZ867-665-643>646-301900-
LAKE MICHIGAN

STATION/POSITION TIME  TEMP    WIND        PRES    WAVE
                       AIR SEA DIR/SP/G            HT/PER
                 (UTC) (F)     (DEG/KT/KT) (MB)    (FT/S)
CHAMBERS ISLAND  1700   47     350/ 10/ 16 1019.3F
S GREEN BAY BUOY 1700   47                 1019.9F
N MID LAKE BUOY  1650   48 58   20/ 12/ 16 1019.0R   2/ 4
NORTHPORT PIER   1700   48     340/ 10/ 14 1019.3S
KEWAUNEE LAKESHO 1700   47      20/  7/ 10 1018.0F
SHEBOYGAN LAKESH 1700   47 54   10/ 16/ 17 1019.3F
PORT WASHINGTON  1700   53      50/ 10/ 13 1019.3
ATWATER BUOY     1700   51      10/ 14/ 17 1019.4R
MILWAUKEE LAKESH 1700   50      10/ 11/ 13   N/A
S MID LAKE BUOY  1650   53 62   20/ 16/ 17 1017.2R   5/ 7
KENOSHA   LAKESH 1700   51      10/  9/ 15 1018.3R
$$

TC  - TEMPERATURE IN CELSIUS
VSB - VISIBILITY IN STATUTE MILES
WCI - WIND CHILL INDEX
HX  - HEAT INDEX



USA.gov is the U.S. government's official web portal to all federal, state and local government web resources and services.